TimeEDT,TemperatureF,Dew PointF,Humidity,Sea Level PressureIn,VisibilityMPH,Wind Direction,Wind SpeedMPH,Gust SpeedMPH,PrecipitationIn,Events,Conditions,WindDirDegrees,DateUTC
12:54 AM,48.0,39.9,74,29.93,10.0,North,4.6,-,N/A,,Clear,350,2012-10-17 04:54:00
1:54 AM,48.0,39.9,74,29.94,10.0,Calm,Calm,-,N/A,,Partly Cloudy,0,2012-10-17 05:54:00
2:54 AM,48.0,39.9,74,29.95,10.0,Calm,Calm,-,N/A,,Partly Cloudy,0,2012-10-17 06:54:00
3:54 AM,46.0,39.9,79,29.97,10.0,Calm,Calm,-,N/A,,Scattered Clouds,0,2012-10-17 07:54:00
4:54 AM,45.0,42.1,90,29.97,10.0,Calm,Calm,-,N/A,,Scattered Clouds,0,2012-10-17 08:54:00
5:54 AM,46.0,42.1,86,29.98,10.0,Calm,Calm,-,N/A,,Scattered Clouds,0,2012-10-17 09:54:00
6:54 AM,44.1,39.9,85,29.99,10.0,North,3.5,-,N/A,,Mostly Cloudy,350,2012-10-17 10:54:00
7:54 AM,46.9,39.9,77,30.00,10.0,NNW,3.5,-,N/A,,Mostly Cloudy,340,2012-10-17 11:54:00
8:54 AM,51.1,41.0,68,30.02,10.0,Calm,Calm,-,N/A,,Mostly Cloudy,0,2012-10-17 12:54:00
9:54 AM,55.0,39.9,57,30.04,10.0,Calm,Calm,-,N/A,,Mostly Cloudy,0,2012-10-17 13:54:00
10:54 AM,57.0,39.0,51,30.04,10.0,Variable,3.5,-,N/A,,Overcast,0,2012-10-17 14:54:00
11:54 AM,57.0,37.9,49,30.03,10.0,SW,3.5,-,N/A,,Overcast,220,2012-10-17 15:54:00
12:54 PM,60.1,39.0,46,30.01,10.0,WSW,5.8,-,N/A,,Overcast,250,2012-10-17 16:54:00
1:54 PM,61.0,39.0,44,29.99,10.0,WSW,5.8,-,N/A,,Mostly Cloudy,250,2012-10-17 17:54:00
2:54 PM,62.1,39.0,43,29.96,10.0,Variable,4.6,-,N/A,,Mostly Cloudy,0,2012-10-17 18:54:00
3:54 PM,62.1,39.0,43,29.96,10.0,West,5.8,-,N/A,,Scattered Clouds,260,2012-10-17 19:54:00
4:54 PM,63.0,39.9,43,29.96,10.0,West,8.1,-,N/A,,Mostly Cloudy,260,2012-10-17 20:54:00
5:54 PM,62.1,39.9,44,29.96,10.0,SW,4.6,-,N/A,,Mostly Cloudy,220,2012-10-17 21:54:00
6:54 PM,57.0,43.0,59,29.98,10.0,South,6.9,-,N/A,,Scattered Clouds,170,2012-10-17 22:54:00
7:54 PM,55.9,44.1,64,29.98,10.0,SSE,5.8,-,N/A,,Partly Cloudy,150,2012-10-17 23:54:00
8:54 PM,54.0,44.1,69,29.99,10.0,South,5.8,-,N/A,,Partly Cloudy,170,2012-10-18 00:54:00
9:54 PM,53.1,44.1,71,30.00,10.0,South,4.6,-,N/A,,Partly Cloudy,170,2012-10-18 01:54:00
10:54 PM,53.1,44.1,71,30.00,10.0,SSE,3.5,-,N/A,,Clear,150,2012-10-18 02:54:00
11:54 PM,52.0,45.0,77,29.99,10.0,SSE,3.5,-,N/A,,Clear,150,2012-10-18 03:54:00